Regional Weather Roundup
Issued by NWS

Home | Current Version | Previous Version | Text Only | Print | Product List | Glossary Off
Versions: 1 2 3 4 5 6 7 8 9 10 11 12 13 14 15 16 17 18 19 20 21 22 23 24 25 26 27 28 29 30 31 32 33 34 35 36 37 38 39 40 41 42 43 44 45 46 47 48 49 50

907
ASUS45 KBOI 270510
RWRID

IDAHO REGIONAL WEATHER ROUNDUP
NATIONAL WEATHER SERVICE BOISE ID
1100 PM MDT MON SEP 26 2016

NOTE: "FAIR" INDICATES FEW OR NO CLOUDS BELOW 12000 FEET
WITH NO SIGNIFICANT WEATHER AND/OR OBSTRUCTIONS TO VISIBILITY

IDZ012-014-270600-
SOUTHWEST IDAHO


CITY           SKY/WX    TMP DP  RH WIND       PRES   REMARKS
BOISE          CLEAR     65  42  43 SE8       30.13S
CALDWELL       CLEAR     59  46  62 CALM      30.11S
MOUNTAIN HOME  CLEAR     59  46  61 E5        30.14F
$$

IDZ016-017-270600-
SOUTHCENTRAL IDAHO


CITY           SKY/WX    TMP DP  RH WIND       PRES   REMARKS
BURLEY         CLEAR     52  46  80 CALM      30.22S
JEROME         CLEAR     64  41  42 E12       30.21F
TWIN FALLS     CLEAR     55  46  71 S9        30.21F
$$

IDZ019>023-270600-
SOUTHEAST IDAHO


CITY           SKY/WX    TMP DP  RH WIND       PRES   REMARKS
IDAHO FALLS    CLEAR     48  43  82 N3        30.29S
POCATELLO      CLOUDY    50  43  77 CALM      30.26F
REXBURG        CLOUDY    49  45  86 NE10      30.29F
$$

IDZ006-010-011-018-031-032-270600-
CENTRAL IDAHO MOUNTAINS


CITY           SKY/WX    TMP DP  RH WIND       PRES   REMARKS
MCCALL         CLEAR     51  41  68 CALM      30.25S
HAILEY         CLEAR     54  45  71 NW8       30.33S
STANLEY          N/A     45  36  70 CALM      30.37S
SALMON         CLEAR     48  43  81 S5        30.23R
CHALLIS        CLEAR     54  38  54 SE5       30.27R
$$

IDZ002-004-006-007-026-270600-
NORTHERN IDAHO


CITY           SKY/WX    TMP DP  RH WIND       PRES   REMARKS
LEWISTON       CLEAR     69  43  38 S5        29.98S
LOWELL           N/A     57  54  89 N5        30.09S
COEUR D`ALENE  NOT AVBL
MULLAN PASS    CLEAR     59  39  47 VRB6      30.24F
$$




USA.gov is the U.S. government's official web portal to all federal, state and local government web resources and services.